Rochelle, IL

3:20 AM CST on November 13, 2019 (GMT -0600)
Rochelle

Weather History for KRPJ - September, 2019

Change the Weather History Date:

Saturday, September 7, 2019

  Actual Average (KRFD) Record (KRFD)
Temperature  
Mean Temperature 62 °F -  
Max Temperature 75 °F 79 °F 103 °F (1939)
Min Temperature 48 °F 56 °F 37 °F (1986)
Degree Days  
Heating Degree Days 4    
Growing Degree Days 12 (Base 50)    
Moisture  
Dew Point 58 °F    
Average Humidity 87    
Maximum Humidity 100    
Minimum Humidity 63    
Precipitation  
Precipitation 0.00 in - - ()
Sea Level Pressure  
Sea Level Pressure 30.07 in    
Wind  
Wind Speed 2 mph ()    
Max Wind Speed 13 mph    
Max Gust Speed 20 mph    
Visibility 8.8 miles    
Events Fog , Rain    
Averages and records for this station are not official NWS values.
T = Trace of Precipitation, MM = Missing Value Source: Averaged Metar Reports

Daily Weather History Graph

Daily Weather History Graph

Search for Another Location

Airport or City:

Astronomy

Sep. 07, 2019 Rise Set
Actual Time 6:28 AM CDT 7:19 PM CDT
Civil Twilight 5:59 AM CDT 7:48 PM CDT
Nautical Twilight 5:25 AM CDT 8:21 PM CDT
Astronomical Twilight 4:50 AM CDT 8:56 PM CDT
Moon 3:40 PM CDT (9/7) 12:15 AM CDT (9/7)
Length of Visible Light 13h 48m
Length of Day
12h 51m
Waxing Gibbous, 66% of the Moon is Illuminated
Sep 7
Waxing Gibbous
Sep 13
Full
Sep 21
Last Quarter
Sep 28
New
Oct 5
First Quarter

Hourly Weather History & Observations

Time (CDT) Temp. Dew Point Humidity Pressure Visibility Wind Dir Wind Speed Gust Speed Precip Events Conditions
12:15 AM 55.9 °F 55.9 °F 100% 30.08 in 10.0 mi Calm Calm - N/A   Clear
12:35 AM 55.6 °F 55.6 °F 100% 30.09 in 10.0 mi Calm Calm - N/A   Clear
12:55 AM 53.8 °F 53.8 °F 100% 30.09 in 10.0 mi Calm Calm - N/A   Clear
1:15 AM 53.1 °F 53.1 °F 100% 30.08 in 10.0 mi Calm Calm - N/A   Clear
1:35 AM 52.9 °F 52.9 °F 100% 30.09 in 10.0 mi Calm Calm - N/A   Clear
1:55 AM 53.2 °F 53.2 °F 100% 30.08 in 10.0 mi Calm Calm - N/A   Clear
2:15 AM 51.4 °F 51.4 °F 100% 30.08 in 7.0 mi Calm Calm - N/A   Clear
2:35 AM 51.8 °F 51.8 °F 100% 30.08 in 10.0 mi Calm Calm - N/A   Clear
2:55 AM 50.7 °F 50.7 °F 100% 30.07 in 10.0 mi Calm Calm - N/A   Clear
3:35 AM 49.6 °F 49.6 °F 100% 30.08 in 1.0 mi Calm Calm - N/A   Overcast
3:55 AM 49.3 °F 49.3 °F 100% 30.08 in 0.5 mi Calm Calm - N/A Fog Fog
4:15 AM 49.3 °F 49.3 °F 100% 30.08 in 1.5 mi Calm Calm - N/A   Mostly Cloudy
4:35 AM 48.7 °F 48.7 °F 100% 30.08 in 1.2 mi Calm Calm - N/A   Overcast
4:55 AM 49.5 °F 49.5 °F 100% 30.08 in 0.5 mi Calm Calm - N/A Fog Fog
5:15 AM 49.6 °F 49.6 °F 100% 30.09 in 5.0 mi Calm Calm - N/A   Scattered Clouds
5:35 AM 49.6 °F 49.6 °F 100% 30.09 in 7.0 mi Calm Calm - N/A   Clear
5:55 AM 50.0 °F 50.0 °F 100% 30.09 in 10.0 mi Calm Calm - N/A   Clear
6:15 AM 49.3 °F 49.3 °F 100% 30.09 in 10.0 mi Calm Calm - N/A   Clear
6:35 AM 49.1 °F 49.1 °F 100% 30.09 in 7.0 mi South 3.5 mph - N/A   Clear
6:55 AM 49.1 °F 49.1 °F 100% 30.09 in 1.5 mi Calm Calm - N/A   Mostly Cloudy
7:15 AM 49.6 °F 49.6 °F 100% 30.09 in 1.5 mi South 3.5 mph - N/A   Mostly Cloudy
7:35 AM 50.2 °F 50.2 °F 100% 30.09 in 3.0 mi Calm Calm - N/A   Scattered Clouds
7:55 AM 52.0 °F 52.0 °F 100% 30.10 in 10.0 mi Calm Calm - N/A   Clear
8:15 AM 55.2 °F 55.2 °F 100% 30.09 in 10.0 mi Calm Calm - N/A   Clear
8:35 AM 57.0 °F 57.0 °F 100% 30.10 in 10.0 mi Calm Calm - N/A   Clear
8:55 AM 58.6 °F 58.6 °F 100% 30.09 in 10.0 mi Calm Calm - N/A   Clear
9:15 AM 60.1 °F 60.1 °F 100% 30.09 in 10.0 mi Calm Calm - N/A   Clear
9:35 AM 61.5 °F 60.4 °F 96% 30.09 in 10.0 mi SSW 3.5 mph - N/A   Scattered Clouds
9:55 AM 63.1 °F 61.3 °F 94% 30.09 in 10.0 mi Calm Calm - N/A   Clear
10:15 AM 64.8 °F 61.5 °F 89% 30.09 in 10.0 mi West 4.6 mph - N/A   Clear
10:35 AM 66.4 °F 60.6 °F 82% 30.08 in 10.0 mi SW 4.6 mph - N/A   Clear
10:55 AM 67.6 °F 60.3 °F 77% 30.08 in 10.0 mi WSW 5.8 mph - N/A   Clear
11:15 AM 69.1 °F 61.0 °F 75% 30.07 in 10.0 mi WSW 5.8 mph - N/A   Clear
11:35 AM 69.8 °F 61.0 °F 73% 30.07 in 10.0 mi WSW 5.8 mph - N/A   Clear
11:55 AM 70.7 °F 61.0 °F 71% 30.06 in 10.0 mi WSW 9.2 mph - N/A   Clear
12:15 PM 70.9 °F 61.2 °F 71% 30.06 in 10.0 mi West 6.9 mph - N/A   Clear
12:35 PM 72.5 °F 61.2 °F 67% 30.06 in 10.0 mi West 6.9 mph - N/A   Scattered Clouds
12:55 PM 73.0 °F 61.7 °F 67% 30.06 in 10.0 mi WNW 6.9 mph - N/A   Clear
1:15 PM 73.6 °F 62.6 °F 68% 30.05 in 10.0 mi West 6.9 mph - N/A   Clear
1:35 PM 74.3 °F 61.9 °F 65% 30.05 in 10.0 mi West 9.2 mph - N/A   Mostly Cloudy
1:55 PM 73.4 °F 61.0 °F 65% 30.05 in 10.0 mi West 9.2 mph - N/A   Mostly Cloudy
2:15 PM 73.8 °F 62.8 °F 68% 30.05 in 10.0 mi West 8.1 mph - N/A   Mostly Cloudy
2:35 PM 75.2 °F 62.4 °F 64% 30.04 in 10.0 mi West 10.4 mph - N/A   Mostly Cloudy
2:55 PM 75.7 °F 62.6 °F 64% 30.04 in 10.0 mi West 8.1 mph - N/A   Mostly Cloudy
3:15 PM 74.1 °F 62.1 °F 66% 30.04 in 10.0 mi WNW 9.2 mph - N/A   Scattered Clouds
3:35 PM 75.4 °F 62.4 °F 64% 30.04 in 10.0 mi West 12.7 mph 16.1 mph N/A   Clear
3:55 PM 74.5 °F 61.9 °F 65% 30.04 in 10.0 mi West 9.2 mph 19.6 mph N/A   Scattered Clouds
4:15 PM 75.9 °F 62.4 °F 63% 30.03 in 10.0 mi West 11.5 mph - N/A   Mostly Cloudy
4:35 PM 73.6 °F 62.8 °F 69% 30.03 in 10.0 mi West 10.4 mph - N/A   Mostly Cloudy
4:55 PM 73.4 °F 62.6 °F 69% 30.03 in 10.0 mi West 9.2 mph - N/A   Mostly Cloudy
5:15 PM 73.4 °F 62.6 °F 69% 30.04 in 10.0 mi NW 6.9 mph - N/A   Mostly Cloudy
5:35 PM 71.6 °F 63.3 °F 75% 30.03 in 10.0 mi North 8.1 mph - N/A   Overcast
5:55 PM 70.7 °F 63.3 °F 77% 30.03 in 10.0 mi NNW 4.6 mph - N/A   Overcast
6:15 PM 70.3 °F 63.7 °F 79% 30.03 in 10.0 mi North 3.5 mph - N/A   Scattered Clouds
6:35 PM 69.4 °F 63.5 °F 81% 30.04 in 10.0 mi NNW 4.6 mph - N/A Rain Light Rain
6:55 PM 68.9 °F 62.8 °F 81% 30.05 in 10.0 mi NNW 4.6 mph - N/A Rain Light Rain
7:15 PM 67.6 °F 63.0 °F 85% 30.05 in 10.0 mi North 4.6 mph - N/A   Light Drizzle
7:35 PM 66.2 °F 62.6 °F 88% 30.05 in 10.0 mi North 4.6 mph - N/A   Light Drizzle
7:55 PM 65.5 °F 62.2 °F 89% 30.05 in 10.0 mi North 4.6 mph - N/A   Mostly Cloudy
8:15 PM 65.3 °F 61.0 °F 86% 30.05 in 10.0 mi North 4.6 mph - N/A   Scattered Clouds
8:35 PM 65.3 °F 60.8 °F 85% 30.06 in 10.0 mi North 3.5 mph - N/A Rain Light Rain
8:55 PM 64.9 °F 59.5 °F 83% 30.06 in 10.0 mi NNE 6.9 mph - N/A   Drizzle
9:15 PM 64.2 °F 60.4 °F 87% 30.05 in 10.0 mi NE 5.8 mph - N/A   Drizzle
9:35 PM 63.5 °F 60.8 °F 91% 30.05 in 10.0 mi NE 4.6 mph - N/A Rain Light Rain
9:55 PM 63.0 °F 60.6 °F 92% 30.05 in 10.0 mi NE 3.5 mph - N/A   Clear
10:15 PM 62.8 °F 59.9 °F 90% 30.05 in 10.0 mi NE 5.8 mph - N/A   Clear
10:35 PM 62.8 °F 59.9 °F 90% 30.06 in 10.0 mi NE 4.6 mph - N/A   Scattered Clouds
10:55 PM 62.6 °F 59.9 °F 91% 30.06 in 10.0 mi NNE 4.6 mph - N/A   Overcast
11:15 PM 62.6 °F 60.4 °F 93% 30.06 in 10.0 mi NE 3.5 mph - N/A   Overcast
11:35 PM 63.0 °F 59.9 °F 90% 30.06 in 10.0 mi NE 3.5 mph - N/A   Overcast
11:55 PM 62.8 °F 59.9 °F 90% 30.06 in 10.0 mi ENE 3.5 mph - N/A   Overcast